{"data":{"norad_id":51757,"epoch":"2026-05-24T21:41:18.191328Z","epoch_age_seconds":87349,"freshness":"FRESH","line1":"1 51757U 22016AV  26144.90368277  .00000390  00000+0  42549-4 0  9994","line2":"2 51757  53.2136 326.9916 0000819  51.1820 308.9245 15.08843629235218","mean_motion":15.08843629,"eccentricity":8.19e-5,"inclination_deg":53.2136,"raan_deg":326.9916,"arg_perigee_deg":51.182,"mean_anomaly_deg":308.9245,"bstar":4.2549e-5,"rev_number":23521,"period_min":95.437325135831,"perigee_km":539.16572308975,"apogee_km":540.29887008053,"semimajor_km":6917.8692965851,"source":"CELESTRAK","updated_at":"2026-05-25T13:38:16.948783Z"}}